FW1304 Weather Reports


Display with metric or nautical units.
time (UTC)temp
F
wind
direction
speed
MPH
gust
MPH
rain 1hr
in
rain 24hr
in
rain mn
in
humidity
%
barometer
mb
20260906064352 71 157 0.0 0.0 0.00 0.00 0.00 87 1015.5
20260906063840 71 158 0.0 0.0 0.00 0.00 0.00 87 1015.5
20260906063345 71 158 0.0 0.0 0.00 0.00 0.00 87 1015.5
20260906062831 71 158 0.0 0.0 0.00 0.00 0.00 87 1015.5
20260906062343 71 158 0.0 0.0 0.00 0.00 0.00 87 1015.5
20260906061837 71 158 0.0 0.0 0.00 0.00 0.00 87 1015.5
20260906061351 71 158 0.0 0.0 0.00 0.00 0.00 87 1015.4
20260906060833 71 158 0.0 0.0 0.00 0.00 0.00 86 1015.4
20260906060317 72 158 0.0 0.0 0.00 0.00 0.00 86 1015.3
20260906055836 72 163 0.0 0.0 0.00 0.00 0.00 86 1015.3
20260906055340 72 163 0.0 0.0 0.00 0.00 0.00 86 1015.3
20260906054843 72 163 0.0 0.0 0.00 0.00 0.00 86 1015.3
20260906054337 72 163 0.0 0.0 0.00 0.00 0.00 86 1015.4
20260906053836 72 164 0.0 0.0 0.00 0.00 0.00 86 1015.4
20260906053339 72 162 0.0 0.0 0.00 0.00 0.00 86 1015.3
20260906052840 73 162 0.0 0.0 0.00 0.00 0.00 86 1015.3
20260906052344 73 163 0.0 0.0 0.00 0.00 0.00 86 1015.3
20260906051844 73 163 0.0 0.0 0.00 0.00 0.00 85 1015.4
20260906051329 73 163 0.0 0.0 0.00 0.00 0.00 85 1015.3
20260906050903 73 164 0.0 0.0 0.00 0.00 0.00 85 1015.4
20260906050345 73 165 0.0 0.0 0.00 0.00 0.00 84 1015.4
20260906045827 73 165 0.0 0.0 0.00 0.00 0.00 84 1015.5
20260906045331 73 165 0.0 0.0 0.00 0.00 0.00 83 1015.4
20260906044834 74 165 0.0 0.0 0.00 0.00 0.00 83 1015.4
20260906044319 74 165 0.0 0.0 0.00 0.00 0.00 83 1015.5
20260906043817 74 166 0.0 0.0 0.00 0.00 0.00 83 1015.4
20260906043319 74 165 0.0 0.0 0.00 0.00 0.00 82 1015.4
20260906042822 74 166 0.0 0.0 0.00 0.00 0.00 82 1015.5
20260906042326 74 166 0.0 0.0 0.00 0.00 0.00 81 1015.5
20260906041855 74 166 0.0 0.0 0.00 0.00 0.00 81 1015.5
20260906041347 75 166 0.0 0.0 0.00 0.00 0.00 81 1015.5
20260906040830 75 166 0.0 0.0 0.00 0.00 0.00 80 1015.5
20260906040334 75 166 0.0 0.0 0.00 0.00 0.00 80 1015.6
20260906035845 75 166 0.0 0.0 0.00 0.00 0.00 80 1015.5
20260906035328 75 166 0.0 0.0 0.00 0.00 0.00 80 1015.6
20260906034830 75 166 0.0 0.0 0.00 0.00 0.00 79 1015.5
20260906034344 75 167 0.0 0.0 0.00 0.00 0.00 79 1015.6
20260906033817 76 167 0.0 0.0 0.00 0.00 0.00 79 1015.6
20260906033320 76 167 0.0 0.0 0.00 0.00 0.00 79 1015.6
20260906032831 76 167 0.0 0.0 0.00 0.00 0.00 79 1015.7
20260906032333 76 167 0.0 0.0 0.00 0.00 0.00 79 1015.8
20260906031839 76 167 0.0 0.0 0.00 0.00 0.00 79 1015.8
20260906031326 76 167 0.0 0.0 0.00 0.00 0.00 79 1015.8
20260906030827 76 178 0.0 0.0 0.00 0.00 0.00 78 1015.8
20260906030330 76 182 0.0 0.0 0.00 0.00 0.00 78 1015.8
20260906025844 76 184 0.0 0.0 0.00 0.00 0.00 78 1015.9
20260906025344 76 184 0.0 0.0 0.00 0.00 0.00 78 1015.8
20260906024818 76 202 0.0 0.0 0.00 0.00 0.00 78 1015.6
20260906024338 76 202 0.0 0.0 0.00 0.00 0.00 78 1015.6
20260906023837 76 213 0.0 0.0 0.00 0.00 0.00 78 1015.8
20260906023340 76 192 0.0 0.0 0.00 0.00 0.00 78 1015.8
20260906022823 76 129 0.0 0.0 0.00 0.00 0.00 78 1015.6
20260906022333 76 128 0.0 0.0 0.00 0.00 0.00 78 1015.5
20260906021816 76 128 0.0 0.0 0.00 0.00 0.00 77 1015.4
20260906021324 76 130 0.0 0.0 0.00 0.00 0.00 77 1015.3
20260906020826 76 131 0.0 0.0 0.00 0.00 0.00 77 1015.3
20260906020329 77 132 0.0 0.0 0.00 0.00 0.00 77 1015.1
20260906015817 77 132 0.0 0.0 0.00 0.00 0.00 76 1014.9
20260906015347 77 132 0.0 0.0 0.00 0.00 0.00 76 1014.8
20260906014838 77 134 0.0 0.0 0.00 0.00 0.00 76 1014.6
20260906014332 77 142 0.0 0.0 0.00 0.00 0.00 76 1014.5
20260906013831 77 146 0.0 0.0 0.00 0.00 0.00 75 1014.3
20260906013334 77 123 0.0 0.0 0.00 0.00 0.00 75 1014.2
20260906012828 77 118 0.0 0.0 0.00 0.00 0.00 75 1014.0
20260906012331 78 119 0.0 0.0 0.00 0.00 0.00 75 1013.9
20260906011816 78 119 0.0 0.0 0.00 0.00 0.00 74 1013.8
20260906011333 78 119 0.0 0.0 0.00 0.00 0.00 74 1013.5
20260906010844 78 132 0.0 0.0 0.00 0.00 0.00 74 1013.6
20260906010318 78 133 0.0 0.0 0.00 0.00 0.00 74 1013.5
20260906005833 79 133 0.0 0.0 0.00 0.00 0.00 73 1013.5
20260906005334 79 133 0.0 0.0 0.00 0.00 0.00 73 1013.4
20260906004818 79 134 0.0 0.0 0.00 0.00 0.00 72 1013.2
20260906004335 79 134 0.0 0.0 0.00 0.00 0.00 72 1013.1
20260906003838 80 132 0.0 0.0 0.00 0.00 0.00 71 1013.2
20260906003337 80 132 0.0 0.0 0.00 0.00 0.00 71 1013.2
20260906002820 80 133 0.0 0.0 0.00 0.00 0.00 71 1013.1
20260906002330 80 136 0.0 0.0 0.00 0.00 0.00 70 1013.1
20260906001833 80 129 0.0 0.0 0.00 0.00 0.00 70 1012.9
20260906001343 81 101 0.0 0.0 0.00 0.00 0.00 69 1012.8
20260906000826 81 97 0.0 1.0 0.00 0.00 0.00 69 1012.8
20260906000340 81 95 0.0 1.0 0.00 0.00 0.00 69 1012.6
20260905235826 81 124 0.0 0.0 0.00 0.00 0.00 68 1012.8
20260905235325 81 131 0.0 0.0 0.00 0.00 0.00 68 1012.9
20260905234835 81 148 0.0 0.0 0.00 0.00 0.00 68 1013.1
20260905234359 82 135 0.0 0.0 0.00 0.00 0.00 68 1013.1
20260905233842 82 128 0.0 0.0 0.00 0.00 0.00 68 1013.0
20260905233339 82 147 0.0 0.0 0.00 0.00 0.00 68 1013.0
20260905232904 82 141 0.0 2.0 0.00 0.00 0.00 67 1013.0
20260905232329 82 121 0.0 4.0 0.00 0.00 0.00 67 1013.0
20260905231831 82 88 0.0 4.0 0.00 0.00 0.00 67 1012.9
20260905231340 82 109 0.0 4.0 0.00 0.00 0.00 67 1013.0
20260905230824 82 126 0.0 4.0 0.00 0.00 0.00 66 1013.0
20260905230339 82 78 0.0 4.0 0.00 0.00 0.00 67 1013.0
20260905225821 82 105 0.0 2.0 0.00 0.00 0.00 67 1013.1
20260905225350 82 139 0.0 2.0 0.00 0.00 0.00 67 1013.1
20260905224901 82 64 0.0 2.0 0.00 0.00 0.00 66 1013.0
20260905224342 82 178 0.0 2.0 0.00 0.00 0.00 66 1012.8
20260905223816 82 188 0.0 1.0 0.00 0.00 0.00 66 1012.7
20260905223319 83 132 0.0 1.0 0.00 0.00 0.00 67 1012.6
20260905222830 83 225 0.0 2.0 0.00 0.00 0.00 66 1012.6
20260905222334 83 119 0.0 2.0 0.00 0.00 0.00 66 1012.7
20260905221818 83 92 0.0 4.0 0.00 0.00 0.00 65 1012.7
20260905221333 83 75 0.0 4.0 0.00 0.00 0.00 65 1012.6
20260905220833 83 124 1.0 4.0 0.00 0.00 0.00 64 1012.6
20260905220338 83 80 0.0 4.0 0.00 0.00 0.00 65 1012.7
20260905215840 83 101 0.0 4.0 0.00 0.00 0.00 65 1012.8
20260905215343 83 115 0.0 4.0 0.00 0.00 0.00 66 1012.8
20260905214844 83 78 0.0 4.0 0.00 0.00 0.00 66 1012.7
20260905214329 83 89 0.0 2.0 0.00 0.00 0.00 66 1012.8
20260905213830 83 80 0.0 2.0 0.00 0.00 0.00 66 1013.0
20260905213342 83 77 0.0 2.0 0.00 0.00 0.00 67 1013.0
20260905212821 83 87 0.0 2.0 0.00 0.00 0.00 66 1013.0
20260905212325 83 52 0.0 2.0 0.00 0.00 0.00 67 1013.1
20260905211829 83 26 0.0 1.0 0.00 0.00 0.00 67 1013.2
20260905211342 83 83 0.0 2.0 0.00 0.00 0.00 66 1013.4
20260905210842 83 101 0.0 2.0 0.00 0.00 0.00 67 1013.5
20260905210316 82 54 0.0 4.0 0.00 0.00 0.00 68 1013.5
20260905205832 82 83 1.0 4.0 0.00 0.00 0.00 68 1013.4
20260905205334 82 80 0.0 4.0 0.00 0.00 0.00 68 1013.4
20260905204816 82 68 0.0 4.0 0.00 0.00 0.00 68 1013.7
20260905204333 82 41 0.0 2.0 0.00 0.00 0.00 69 1013.7
20260905203838 82 58 0.0 2.0 0.00 0.00 0.00 69 1013.9
20260905203337 82 47 0.0 2.0 0.00 0.00 0.00 69 1013.9
20260905202848 82 89 0.0 2.0 0.00 0.00 0.00 69 1014.1
20260905202331 82 98 0.0 1.0 0.00 0.00 0.00 70 1014.3
20260905201838 81 132 0.0 1.0 0.00 0.00 0.00 70 1014.4
20260905201324 81 40 0.0 0.0 0.00 0.00 0.00 70 1014.5
20260905200819 81 214 0.0 1.0 0.00 0.00 0.00 71 1014.5
20260905200323 81 109 0.0 1.0 0.00 0.00 0.00 70 1014.6
20260905195827 80 85 0.0 0.0 0.00 0.00 0.00 70 1014.5
20260905195330 80 40 0.0 0.0 0.00 0.00 0.00 71 1014.6
20260905194842 80 61 0.0 0.0 0.00 0.00 0.00 72 1014.8
20260905194331 80 74 0.0 1.0 0.00 0.00 0.00 72 1014.9
20260905193816 80 129 0.0 1.0 0.00 0.00 0.00 73 1015.0
20260905193317 80 74 0.0 0.0 0.00 0.00 0.00 73 1015.0
20260905192828 79 84 0.0 0.0 0.00 0.00 0.00 73 1015.0
20260905192326 79 80 0.0 0.0 0.00 0.00 0.00 74 1015.1
20260905191838 79 93 0.0 0.0 0.00 0.00 0.00 74 1015.1
20260905191320 79 32 0.0 0.0 0.00 0.00 0.00 75 1015.2
20260905190833 79 68 0.0 0.0 0.00 0.00 0.00 76 1015.0
20260905190333 79 115 0.0 0.0 0.00 0.00 0.00 75 1015.1
20260905185847 79 123 0.0 0.0 0.00 0.00 0.00 75 1015.2
20260905185337 79 17 0.0 0.0 0.00 0.00 0.00 76 1015.2
20260905184839 78 117 0.0 0.0 0.00 0.00 0.00 76 1015.2
20260905184348 78 123 0.0 0.0 0.00 0.00 0.00 77 1015.4
20260905183831 78 197 0.0 0.0 0.00 0.00 0.00 77 1015.5
20260905183404 77 108 0.0 0.0 0.00 0.00 0.00 78 1015.5
20260905182838 77 212 0.0 0.0 0.00 0.00 0.00 78 1015.5
20260905182337 77 198 0.0 0.0 0.00 0.00 0.00 79 1015.4
20260905181841 77 155 0.0 0.0 0.00 0.00 0.00 80 1015.4
20260905181328 76 144 0.0 0.0 0.00 0.00 0.00 79 1015.4
20260905180842 76 121 0.0 0.0 0.00 0.00 0.00 80 1015.5
20260905180319 76 134 0.0 0.0 0.00 0.00 0.00 80 1015.5
20260905175833 76 162 0.0 0.0 0.00 0.00 0.00 80 1015.5
20260905175335 76 139 0.0 0.0 0.00 0.00 0.00 81 1015.6
20260905174838 76 130 0.0 0.0 0.00 0.00 0.00 82 1015.6
20260905174319 75 161 0.0 0.0 0.00 0.00 0.00 82 1015.8
20260905173822 75 182 0.0 0.0 0.00 0.00 0.00 82 1015.8
20260905173335 75 101 0.0 0.0 0.00 0.00 0.00 83 1015.9
20260905172820 75 80 0.0 0.0 0.00 0.00 0.00 83 1016.0
20260905172319 74 137 0.0 0.0 0.00 0.00 0.00 84 1015.9
20260905171820 74 123 0.0 0.0 0.00 0.00 0.00 85 1015.8
20260905171335 74 170 0.0 0.0 0.00 0.00 0.00 86 1015.9
20260905170839 73 115 0.0 0.0 0.00 0.00 0.00 87 1015.9
20260905170337 72 113 0.0 0.0 0.00 0.00 0.00 87 1015.9
20260905165818 72 136 0.0 0.0 0.00 0.00 0.00 87 1015.9
20260905165401 72 123 0.0 0.0 0.00 0.00 0.00 88 1015.9
20260905164842 72 82 0.0 0.0 0.00 0.00 0.00 88 1015.8
20260905164354 71 124 0.0 0.0 0.00 0.00 0.00 88 1015.9
20260905163835 71 156 0.0 0.0 0.00 0.00 0.00 88 1015.8
20260905163338 71 87 0.0 1.0 0.00 0.00 0.00 88 1015.9
20260905162820 70 99 0.0 1.0 0.00 0.00 0.00 88 1015.8
20260905162318 70 53 0.0 1.0 0.00 0.00 0.00 88 1015.7
20260905161819 70 82 0.0 1.0 0.00 0.00 0.00 88 1015.7
20260905161402 69 106 0.0 0.0 0.00 0.00 0.00 88 1015.9
20260905160818 69 360 0.0 0.0 0.00 0.00 0.00 87 1016.1
20260905160317 69 95 0.0 0.0 0.00 0.00 0.00 87 1016.2
20260905155826 68 94 0.0 0.0 0.00 0.00 0.00 88 1016.4
20260905155328 68 76 0.0 0.0 0.00 0.00 0.00 87 1016.4
20260905154840 68 31 0.0 0.0 0.00 0.00 0.00 87 1016.3
20260905154320 68 28 0.0 0.0 0.00 0.00 0.00 87 1016.1
20260905153823 67 92 0.0 0.0 0.00 0.00 0.00 87 1016.1
20260905153337 67 122 0.0 0.0 0.00 0.00 0.00 87 1016.4
20260905152832 67 123 0.0 0.0 0.00 0.00 0.00 87 1016.6
20260905152337 67 123 0.0 0.0 0.00 0.00 0.00 87 1016.6
20260905151839 67 123 0.0 0.0 0.00 0.00 0.00 87 1016.5
20260905151352 66 126 0.0 0.0 0.00 0.00 0.00 87 1016.5
20260905150844 66 126 0.0 0.0 0.00 0.00 0.00 87 1016.2
20260905150320 66 80 0.0 0.0 0.00 0.00 0.00 87 1015.7
20260905145843 66 88 0.0 0.0 0.00 0.00 0.00 87 1015.5
20260905145346 66 117 0.0 0.0 0.00 0.00 0.00 87 1015.5
20260905144858 66 146 0.0 0.0 0.00 0.00 0.00 87 1015.4
20260905144356 66 92 0.0 1.0 0.00 0.00 0.00 87 1015.3
20260905143838 66 49 0.0 1.0 0.00 0.00 0.00 87 1015.4
20260905143342 66 81 0.0 0.0 0.00 0.00 0.00 87 1015.5
20260905142830 66 110 0.0 0.0 0.00 0.00 0.00 87 1015.6
20260905142330 65 82 0.0 0.0 0.00 0.00 0.00 87 1015.6
20260905141835 65 84 0.0 0.0 0.00 0.00 0.00 87 1015.6
20260905141348 65 63 0.0 0.0 0.00 0.00 0.00 87 1015.7
20260905140828 65 34 0.0 0.0 0.00 0.00 0.00 87 1015.8
20260905140329 65 42 0.0 0.0 0.00 0.00 0.00 87 1015.8
20260905135817 65 40 0.0 0.0 0.00 0.00 0.00 87 1015.8
20260905135325 65 34 0.0 0.0 0.00 0.00 0.00 87 1015.9
20260905134853 65 44 0.0 0.0 0.00 0.00 0.00 88 1015.8
20260905134355 65 27 0.0 0.0 0.00 0.00 0.00 88 1015.8
20260905133818 65 78 0.0 0.0 0.00 0.00 0.00 87 1015.8
20260905133321 65 78 0.0 0.0 0.00 0.00 0.00 87 1015.8
20260905132902 65 78 0.0 0.0 0.00 0.00 0.00 87 1015.8
20260905132345 65 78 0.0 0.0 0.00 0.00 0.00 87 1015.7
20260905131817 65 78 0.0 0.0 0.00 0.00 0.00 88 1015.5
20260905131333 65 78 0.0 0.0 0.00 0.00 0.00 88 1015.4
20260905130833 65 78 0.0 0.0 0.00 0.00 0.00 88 1015.2
20260905130402 64 78 0.0 0.0 0.00 0.00 0.00 88 1015.1
20260905125825 64 80 0.0 0.0 0.00 0.00 0.00 88 1014.9
20260905125328 64 73 0.0 0.0 0.00 0.00 0.00 88 1014.7
20260905124828 64 49 0.0 0.0 0.00 0.00 0.00 88 1014.6
20260905124324 64 47 0.0 0.0 0.00 0.00 0.00 87 1014.5
20260905123826 64 65 0.0 0.0 0.00 0.00 0.00 88 1014.3
20260905123330 64 73 0.0 0.0 0.00 0.00 0.00 88 1014.3
20260905122843 64 82 0.0 0.0 0.00 0.00 0.00 88 1014.3
20260905122327 64 56 0.0 0.0 0.00 0.00 0.00 88 1014.5
20260905121830 64 40 0.0 0.0 0.00 0.00 0.00 88 1014.6
20260905121323 64 39 0.0 0.0 0.00 0.00 0.00 88 1014.4
20260905120823 64 50 0.0 0.0 0.00 0.00 0.00 88 1014.3
20260905120355 64 55 0.0 0.0 0.00 0.00 0.00 88 1014.6
20260905115818 64 44 0.0 0.0 0.00 0.00 0.00 88 1014.4
20260905115322 64 42 0.0 0.0 0.00 0.00 0.00 88 1014.2
20260905114850 64 36 0.0 0.0 0.00 0.00 0.00 88 1014.4
20260905114342 64 46 0.0 0.0 0.00 0.00 0.00 88 1014.2
20260905113817 64 42 0.0 0.0 0.00 0.00 0.00 88 1014.4
20260905113317 64 34 0.0 0.0 0.00 0.00 0.00 88 1014.5
20260905112857 64 32 0.0 0.0 0.00 0.00 0.00 88 1014.4
20260905112338 64 34 0.0 0.0 0.00 0.00 0.00 88 1014.4
20260905111842 64 32 0.0 0.0 0.00 0.00 0.00 88 1014.4
20260905111337 64 36 0.0 0.0 0.00 0.00 0.00 88 1014.6
20260905110836 64 13 0.0 0.0 0.00 0.00 0.00 88 1014.5
20260905110322 64 57 0.0 0.0 0.00 0.00 0.00 88 1014.4
20260905105827 64 79 0.0 0.0 0.00 0.00 0.00 88 1014.2
20260905105329 64 111 0.0 0.0 0.00 0.00 0.00 88 1014.1
20260905104831 64 111 0.0 0.0 0.00 0.00 0.00 88 1014.1
20260905104342 64 102 0.0 0.0 0.00 0.00 0.00 88 1014.1
20260905103817 64 103 0.0 0.0 0.00 0.00 0.00 88 1014.2
20260905103318 64 103 0.0 0.0 0.00 0.00 0.00 88 1014.2
20260905102834 64 105 0.0 0.0 0.00 0.00 0.00 88 1014.2
20260905102335 64 109 0.0 0.0 0.00 0.00 0.00 88 1014.4
20260905101838 64 109 0.0 0.0 0.00 0.00 0.00 88 1014.4
20260905101322 64 109 0.0 0.0 0.00 0.00 0.00 88 1014.4
20260905100837 64 137 0.0 0.0 0.00 0.00 0.00 88 1014.0
20260905100345 64 5 0.0 0.0 0.00 0.00 0.00 88 1013.7
20260905095839 64 121 0.0 1.0 0.00 0.00 0.00 88 1013.6
20260905095342 64 112 0.0 1.0 0.00 0.00 0.00 88 1013.4
20260905094816 64 113 0.0 0.0 0.00 0.00 0.00 88 1013.2
20260905094355 64 85 0.0 0.0 0.00 0.00 0.00 88 1013.0
20260905093905 64 86 0.0 0.0 0.00 0.00 0.00 88 1013.0
20260905093317 64 144 0.0 0.0 0.00 0.00 0.00 88 1013.2
20260905092838 64 85 0.0 0.0 0.00 0.00 0.00 88 1013.1
20260905092349 64 86 0.0 0.0 0.00 0.00 0.00 88 1013.1
20260905091837 64 11 0.0 0.0 0.00 0.00 0.00 88 1013.2
20260905091323 64 103 0.0 1.0 0.00 0.00 0.00 88 1013.4
20260905090818 64 103 0.0 1.0 0.00 0.00 0.00 88 1013.4
20260905090329 64 57 0.0 0.0 0.00 0.00 0.00 88 1013.5
20260905085844 64 99 0.0 1.0 0.00 0.00 0.00 88 1013.5
20260905085318 64 67 0.0 1.0 0.00 0.00 0.00 88 1013.7
20260905084816 64 49 0.0 0.0 0.00 0.00 0.00 88 1013.8
20260905084332 64 42 0.0 0.0 0.00 0.00 0.00 88 1013.9
20260905083835 65 74 0.0 0.0 0.00 0.00 0.00 88 1013.9
20260905083338 65 76 0.0 0.0 0.00 0.00 0.00 88 1013.9
20260905082826 65 127 0.0 0.0 0.00 0.00 0.00 88 1013.9
20260905082329 65 86 0.0 0.0 0.00 0.00 0.00 88 1014.0
20260905081842 65 84 0.0 0.0 0.00 0.00 0.00 88 1014.1
20260905081330 65 27 0.0 1.0 0.00 0.00 0.00 88 1014.1
20260905080828 65 33 0.0 1.0 0.00 0.00 0.00 88 1014.1
20260905080338 65 55 0.0 0.0 0.00 0.00 0.00 88 1014.1
20260905075830 65 46 0.0 0.0 0.00 0.00 0.00 88 1014.1
20260905075402 65 43 0.0 0.0 0.00 0.00 0.00 88 1014.0
20260905074840 65 25 0.0 1.0 0.00 0.00 0.00 88 1014.0
20260905074328 65 103 0.0 0.0 0.00 0.00 0.00 88 1013.9
20260905073831 65 34 0.0 1.0 0.00 0.00 0.00 88 1014.0
20260905073404 65 57 0.0 0.0 0.00 0.00 0.00 88 1014.0
20260905072823 65 51 0.0 0.0 0.00 0.00 0.00 88 1014.0
20260905072334 65 122 0.0 1.0 0.00 0.00 0.00 88 1014.0
20260905071816 65 42 0.0 2.0 0.00 0.00 0.00 88 1013.9
20260905071355 65 57 0.0 2.0 0.00 0.00 0.00 88 1013.9
20260905070816 65 49 0.0 2.0 0.00 0.00 0.00 88 1014.0
20260905070319 65 34 0.0 0.0 0.00 0.00 0.00 88 1013.9
20260905065835 65 44 0.0 0.0 0.00 0.00 0.00 88 1014.0
20260905065334 65 40 0.0 0.0 0.00 0.00 0.00 88 1014.0
20260905064816 65 11 0.0 0.0 0.00 0.00 0.00 88 1013.8